CCA7924 ZYHB-VHHH

Flight info

Callsign CCA7924
Flight time 3h 55m
Altitude 34100
Route LEGAG W204 RUSBO G212 VYK W37 OMBEB R473 WYN W18 NLG W23 ZUH R473 SIERA
Aircraft A321/M-SDE3FGHIRWY/LB1

Departure

Time 2026-04-30 10:02
Airport Harbin Taiping International Airport (ZYHB)

Arrival

Time 2026-04-30 13:57
Airport Hong Kong International Airport (VHHH)
Time Latitude Longitude Altitude Speed Heading
2026-04-30 08:27 45.61782 126.23705 491 ft 0 kts 40°
2026-04-30 09:44 45.61781 126.23704 463 ft 1 kts 40°
2026-04-30 09:44 45.61767 126.23687 463 ft 3 kts 40°
2026-04-30 09:44 45.61752 126.23669 461 ft 3 kts 46°
2026-04-30 09:44 45.61742 126.23649 464 ft 3 kts 90°
2026-04-30 09:45 45.61747 126.23626 464 ft 3 kts 130°
2026-04-30 09:45 45.61760 126.23605 463 ft 1 kts 130°
2026-04-30 09:51 45.61757 126.23610 462 ft 1 kts 130°
2026-04-30 09:51 45.61749 126.23624 459 ft 4 kts 130°
2026-04-30 09:51 45.61722 126.23669 464 ft 7 kts 130°
2026-04-30 09:52 45.61695 126.23716 464 ft 5 kts 130°
2026-04-30 09:52 45.61679 126.23755 463 ft 4 kts 105°
2026-04-30 09:52 45.61686 126.23790 463 ft 4 kts 54°
2026-04-30 09:52 45.61707 126.23816 463 ft 5 kts 40°
2026-04-30 09:53 45.61735 126.23849 461 ft 6 kts 39°
2026-04-30 09:53 45.61768 126.23887 462 ft 7 kts 39°
2026-04-30 09:53 45.61816 126.23944 462 ft 13 kts 39°
2026-04-30 09:53 45.61894 126.24035 462 ft 16 kts 39°
2026-04-30 09:54 45.61984 126.24140 460 ft 14 kts 39°
2026-04-30 09:54 45.62067 126.24236 458 ft 16 kts 39°
2026-04-30 09:54 45.62145 126.24336 458 ft 14 kts 41°
2026-04-30 09:54 45.62214 126.24417 458 ft 13 kts 39°
2026-04-30 09:55 45.62288 126.24504 459 ft 15 kts 39°
2026-04-30 09:55 45.62374 126.24607 458 ft 17 kts 39°
2026-04-30 09:55 45.62470 126.24720 457 ft 13 kts 39°
2026-04-30 09:55 45.62544 126.24808 455 ft 14 kts 40°
2026-04-30 09:56 45.62595 126.24869 456 ft 15 kts 40°
2026-04-30 09:56 45.62675 126.24964 456 ft 15 kts 40°
2026-04-30 09:56 45.62748 126.25051 453 ft 12 kts 39°
2026-04-30 09:56 45.62816 126.25132 453 ft 13 kts 39°
2026-04-30 09:57 45.62889 126.25217 454 ft 14 kts 39°
2026-04-30 09:57 45.62990 126.25335 452 ft 15 kts 39°
2026-04-30 09:57 45.63044 126.25398 452 ft 15 kts 39°
2026-04-30 09:57 45.63148 126.25519 452 ft 16 kts 39°
2026-04-30 09:58 45.63205 126.25586 450 ft 16 kts 39°
2026-04-30 09:58 45.63283 126.25677 450 ft 13 kts 39°
2026-04-30 09:58 45.63381 126.25791 450 ft 14 kts 39°
2026-04-30 09:58 45.63432 126.25851 450 ft 14 kts 39°
2026-04-30 09:59 45.63580 126.26023 449 ft 14 kts 39°
2026-04-30 09:59 45.63632 126.26162 449 ft 8 kts 123°
2026-04-30 10:00 45.63551 126.26283 449 ft 9 kts 161°
2026-04-30 10:00 45.63486 126.26293 449 ft 10 kts 176°
2026-04-30 10:01 45.63411 126.26271 450 ft 0 kts 219°
2026-04-30 10:01 45.63407 126.26266 450 ft 6 kts 219°
2026-04-30 10:01 45.63234 126.26064 449 ft 65 kts 219°
2026-04-30 10:02 45.61964 126.24576 462 ft 163 kts 221°
2026-04-30 10:02 45.61077 126.23531 1014 ft 161 kts 222°
2026-04-30 10:02 45.60280 126.22432 1677 ft 160 kts 231°
2026-04-30 10:02 45.59633 126.21133 2230 ft 161 kts 234°
2026-04-30 10:03 45.59077 126.19960 2327 ft 178 kts 235°
2026-04-30 10:03 45.58412 126.18522 2443 ft 195 kts 236°
2026-04-30 10:03 45.57613 126.16806 2543 ft 222 kts 235°
2026-04-30 10:03 45.56697 126.14911 2934 ft 238 kts 234°
2026-04-30 10:04 45.55744 126.12991 3722 ft 237 kts 234°
2026-04-30 10:04 45.54793 126.11104 4484 ft 238 kts 235°
2026-04-30 10:04 45.53819 126.09176 5136 ft 241 kts 236°
2026-04-30 10:04 45.52829 126.07220 5785 ft 245 kts 237°
2026-04-30 10:05 45.51824 126.05242 6391 ft 248 kts 237°
2026-04-30 10:05 45.50804 126.03231 6994 ft 251 kts 238°
2026-04-30 10:05 45.49774 126.01196 7582 ft 255 kts 239°
2026-04-30 10:05 45.48727 125.99124 8166 ft 259 kts 239°
2026-04-30 10:06 45.47668 125.97032 8762 ft 262 kts 239°
2026-04-30 10:06 45.46595 125.94914 9353 ft 266 kts 239°
2026-04-30 10:06 45.45504 125.92764 9906 ft 269 kts 239°
2026-04-30 10:06 45.44390 125.90570 10260 ft 281 kts 239°
2026-04-30 10:07 45.43212 125.88236 10389 ft 299 kts 239°
2026-04-30 10:07 45.41961 125.85764 10510 ft 317 kts 238°
2026-04-30 10:07 45.40531 125.83267 10643 ft 336 kts 232°
2026-04-30 10:07 45.38990 125.80851 10757 ft 350 kts 231°
2026-04-30 10:08 45.37354 125.78289 11080 ft 358 kts 231°
2026-04-30 10:08 45.35670 125.75657 11535 ft 361 kts 231°
2026-04-30 10:08 45.33973 125.73005 12042 ft 364 kts 231°
2026-04-30 10:08 45.32263 125.70338 12554 ft 366 kts 230°
2026-04-30 10:09 45.30544 125.67661 13027 ft 369 kts 230°
2026-04-30 10:09 45.28809 125.64954 13504 ft 371 kts 230°
2026-04-30 10:09 45.27072 125.62243 14009 ft 371 kts 230°
2026-04-30 10:09 45.25333 125.59523 14430 ft 373 kts 230°
2026-04-30 10:10 45.23581 125.56783 14815 ft 376 kts 230°
2026-04-30 10:10 45.21823 125.54039 15217 ft 377 kts 230°
2026-04-30 10:10 45.20052 125.51278 15567 ft 381 kts 230°
2026-04-30 10:10 45.18266 125.48499 15908 ft 383 kts 230°
2026-04-30 10:11 45.16462 125.45705 16267 ft 385 kts 230°
2026-04-30 10:11 45.14651 125.42906 16647 ft 386 kts 230°
2026-04-30 10:11 45.12830 125.40089 17017 ft 387 kts 230°
2026-04-30 10:11 45.11007 125.37267 17357 ft 390 kts 230°
2026-04-30 10:12 45.09174 125.34432 17705 ft 391 kts 230°
2026-04-30 10:12 45.07332 125.31583 18031 ft 394 kts 230°
2026-04-30 10:12 45.05477 125.28717 18317 ft 396 kts 230°
2026-04-30 10:12 45.03623 125.25828 18621 ft 397 kts 232°
2026-04-30 10:13 45.01983 125.22684 18946 ft 397 kts 237°
2026-04-30 10:13 45.00398 125.19478 19243 ft 399 kts 237°
2026-04-30 10:13 44.98803 125.16262 19582 ft 401 kts 237°
2026-04-30 10:13 44.97200 125.13040 19905 ft 402 kts 237°
2026-04-30 10:14 44.95587 125.09802 20233 ft 404 kts 237°
2026-04-30 10:14 44.93985 125.06593 20552 ft 406 kts 237°
2026-04-30 10:14 44.90725 125.00064 21228 ft 409 kts 237°
2026-04-30 10:15 44.89084 124.96776 21530 ft 411 kts 237°
2026-04-30 10:15 44.87435 124.93477 21864 ft 412 kts 236°
2026-04-30 10:15 44.85774 124.90164 22180 ft 414 kts 236°
2026-04-30 10:15 44.84110 124.86848 22526 ft 415 kts 236°
2026-04-30 10:16 44.82441 124.83526 22836 ft 417 kts 236°
2026-04-30 10:16 44.80755 124.80179 23122 ft 419 kts 236°
2026-04-30 10:16 44.79066 124.76822 23359 ft 422 kts 236°
2026-04-30 10:17 44.75649 124.70059 23854 ft 425 kts 236°
2026-04-30 10:17 44.72202 124.63240 24289 ft 430 kts 236°
2026-04-30 10:17 44.70465 124.59806 24541 ft 432 kts 236°
2026-04-30 10:18 44.68720 124.56364 24790 ft 433 kts 236°
2026-04-30 10:18 44.66965 124.52909 25029 ft 435 kts 236°
2026-04-30 10:18 44.65200 124.49440 25246 ft 437 kts 236°
2026-04-30 10:19 44.61647 124.42487 25692 ft 439 kts 236°
2026-04-30 10:19 44.59923 124.38952 25890 ft 440 kts 241°
2026-04-30 10:19 44.58567 124.35114 26075 ft 439 kts 250°
2026-04-30 10:19 44.57668 124.31030 26235 ft 439 kts 259°
2026-04-30 10:20 44.57224 124.26855 26404 ft 440 kts 265°
2026-04-30 10:20 44.56558 124.18300 26729 ft 442 kts 263°
2026-04-30 10:20 44.55901 124.14088 26892 ft 445 kts 254°
2026-04-30 10:21 44.54750 124.10045 27043 ft 448 kts 245°
2026-04-30 10:21 44.53146 124.06298 27254 ft 450 kts 237°
2026-04-30 10:21 44.51294 124.02754 27429 ft 451 kts 236°
2026-04-30 10:21 44.49439 123.99206 27633 ft 451 kts 236°
2026-04-30 10:22 44.47591 123.95670 27836 ft 451 kts 236°
2026-04-30 10:22 44.45733 123.92113 28023 ft 451 kts 237°
2026-04-30 10:22 44.43890 123.88571 28252 ft 450 kts 237°
2026-04-30 10:22 44.42056 123.85010 28403 ft 451 kts 237°
2026-04-30 10:23 44.40226 123.81439 28540 ft 453 kts 237°
2026-04-30 10:23 44.38393 123.77864 28719 ft 453 kts 237°
2026-04-30 10:23 44.36552 123.74281 28914 ft 453 kts 237°
2026-04-30 10:23 44.34714 123.70717 29110 ft 453 kts 237°
2026-04-30 10:24 44.32866 123.67140 29276 ft 454 kts 237°
2026-04-30 10:24 44.31016 123.63576 29454 ft 454 kts 237°
2026-04-30 10:24 44.29186 123.60054 29625 ft 454 kts 237°
2026-04-30 10:24 44.27333 123.56492 29763 ft 455 kts 237°
2026-04-30 10:25 44.25472 123.52912 29925 ft 455 kts 237°
2026-04-30 10:25 44.23615 123.49347 30088 ft 455 kts 237°
2026-04-30 10:25 44.21757 123.45781 30282 ft 453 kts 237°
2026-04-30 10:25 44.19915 123.42246 30553 ft 450 kts 237°
2026-04-30 10:26 44.18078 123.38723 30773 ft 449 kts 237°
2026-04-30 10:26 44.16238 123.35207 30965 ft 448 kts 237°
2026-04-30 10:26 44.14399 123.31702 31145 ft 448 kts 237°
2026-04-30 10:26 44.12568 123.28216 31328 ft 447 kts 237°
2026-04-30 10:27 44.10729 123.24718 31504 ft 447 kts 238°
2026-04-30 10:27 44.08892 123.21227 31690 ft 446 kts 238°
2026-04-30 10:27 44.07059 123.17743 31857 ft 446 kts 238°
2026-04-30 10:27 44.05229 123.14269 32040 ft 446 kts 238°
2026-04-30 10:28 44.03401 123.10800 32219 ft 445 kts 238°
2026-04-30 10:28 44.01567 123.07322 32357 ft 446 kts 238°
2026-04-30 10:28 43.99726 123.03841 32484 ft 447 kts 238°
2026-04-30 10:28 43.97886 123.00369 32620 ft 448 kts 238°
2026-04-30 10:29 43.96034 122.96882 32772 ft 448 kts 238°
2026-04-30 10:29 43.94184 122.93402 32937 ft 448 kts 238°
2026-04-30 10:29 43.92348 122.89923 33109 ft 447 kts 239°
2026-04-30 10:29 43.90536 122.86415 33292 ft 447 kts 239°
2026-04-30 10:30 43.88745 122.82903 33454 ft 446 kts 240°
2026-04-30 10:30 43.86985 122.79433 33591 ft 446 kts 240°
2026-04-30 10:30 43.85195 122.75908 33756 ft 446 kts 240°
2026-04-30 10:30 43.83408 122.72407 33867 ft 446 kts 239°
2026-04-30 10:31 43.79806 122.65399 33883 ft 446 kts 239°
2026-04-30 10:31 43.76188 122.58414 33880 ft 446 kts 239°
2026-04-30 10:32 43.72562 122.51419 33881 ft 449 kts 239°
2026-04-30 10:32 43.68972 122.44498 33887 ft 449 kts 239°
2026-04-30 10:33 43.65326 122.37488 33886 ft 449 kts 239°
2026-04-30 10:33 43.61674 122.30481 33883 ft 450 kts 239°
2026-04-30 10:34 43.58001 122.23467 33894 ft 451 kts 239°
2026-04-30 10:34 43.54327 122.16456 33894 ft 451 kts 239°
2026-04-30 10:35 43.50690 122.09432 33894 ft 448 kts 240°
2026-04-30 10:35 43.47114 122.02494 33900 ft 447 kts 240°
2026-04-30 10:36 43.43515 121.95527 33897 ft 447 kts 240°
2026-04-30 10:36 43.39894 121.88568 33900 ft 447 kts 239°
2026-04-30 10:37 43.36261 121.81628 33900 ft 447 kts 239°
2026-04-30 10:37 43.32620 121.74669 33905 ft 450 kts 239°
2026-04-30 10:38 43.28957 121.67683 33905 ft 451 kts 239°
2026-04-30 10:38 43.25287 121.60702 33902 ft 451 kts 239°
2026-04-30 10:39 43.21623 121.53728 33901 ft 451 kts 239°
2026-04-30 10:39 43.17938 121.46740 33905 ft 452 kts 239°
2026-04-30 10:40 43.14244 121.39757 33908 ft 452 kts 239°
2026-04-30 10:40 43.10547 121.32803 33910 ft 452 kts 239°
2026-04-30 10:41 43.06857 121.25868 33911 ft 455 kts 239°
2026-04-30 10:41 43.03135 121.18879 33913 ft 455 kts 239°
2026-04-30 10:42 42.99395 121.11887 33913 ft 456 kts 239°
2026-04-30 10:42 42.95649 121.04903 33909 ft 456 kts 239°
2026-04-30 10:43 42.91902 120.97906 33916 ft 457 kts 239°
2026-04-30 10:43 42.88150 120.90920 33913 ft 454 kts 239°
2026-04-30 10:44 42.84414 120.84010 33920 ft 452 kts 239°
2026-04-30 10:44 42.80701 120.77152 33916 ft 452 kts 239°
2026-04-30 10:45 42.76976 120.70268 33920 ft 452 kts 239°
2026-04-30 10:45 42.73241 120.63385 33914 ft 452 kts 239°
2026-04-30 10:46 42.69502 120.56516 33916 ft 452 kts 239°
2026-04-30 10:46 42.65739 120.49609 33918 ft 456 kts 239°
2026-04-30 10:47 42.61967 120.42706 33916 ft 456 kts 239°
2026-04-30 10:47 42.58172 120.35799 33917 ft 456 kts 239°
2026-04-30 10:48 42.54380 120.28890 33919 ft 458 kts 239°
2026-04-30 10:48 42.50573 120.21965 33921 ft 459 kts 239°
2026-04-30 10:49 42.46768 120.15077 33922 ft 459 kts 238°
2026-04-30 10:49 42.42932 120.08164 33917 ft 459 kts 238°
2026-04-30 10:50 42.39094 120.01242 33927 ft 460 kts 238°
2026-04-30 10:50 42.35248 119.94319 33930 ft 460 kts 238°
2026-04-30 10:51 42.31401 119.87413 33932 ft 460 kts 238°
2026-04-30 10:51 42.27548 119.80492 33935 ft 462 kts 238°
2026-04-30 10:52 42.23685 119.73598 33930 ft 459 kts 238°
2026-04-30 10:52 42.19834 119.66742 33929 ft 458 kts 238°
2026-04-30 10:53 42.15990 119.59910 33919 ft 458 kts 238°
2026-04-30 10:53 42.12166 119.53102 33933 ft 459 kts 239°
2026-04-30 10:54 42.08301 119.46242 33928 ft 460 kts 238°
2026-04-30 10:54 42.04421 119.39402 33926 ft 460 kts 238°
2026-04-30 10:55 42.00537 119.32577 33924 ft 460 kts 238°
2026-04-30 10:55 41.96654 119.25728 33930 ft 460 kts 238°
2026-04-30 10:56 41.93429 119.20058 33917 ft 460 kts 238°
2026-04-30 10:56 41.88877 119.12086 33932 ft 461 kts 238°
2026-04-30 10:57 41.84961 119.05251 33935 ft 463 kts 238°
2026-04-30 10:57 41.81058 118.98455 33938 ft 463 kts 238°
2026-04-30 10:58 41.77127 118.91624 33936 ft 463 kts 238°
2026-04-30 10:58 41.73825 118.85907 33949 ft 464 kts 238°
2026-04-30 10:59 41.69905 118.79112 33949 ft 464 kts 238°
2026-04-30 10:59 41.65964 118.72294 33953 ft 464 kts 238°
2026-04-30 11:00 41.62020 118.65488 33959 ft 461 kts 238°
2026-04-30 11:00 41.58170 118.58877 33959 ft 459 kts 238°
2026-04-30 11:01 41.54250 118.52151 33964 ft 459 kts 238°
2026-04-30 11:01 41.50327 118.45423 33962 ft 458 kts 239°
2026-04-30 11:02 41.46959 118.38320 33961 ft 453 kts 245°
2026-04-30 11:02 41.43141 118.29983 33955 ft 453 kts 245°
2026-04-30 11:03 41.40380 118.23983 33959 ft 453 kts 245°
2026-04-30 11:04 41.35470 118.13341 33955 ft 449 kts 244°
2026-04-30 11:04 41.32200 118.06285 33949 ft 447 kts 244°
2026-04-30 11:05 41.28957 117.99289 33955 ft 443 kts 244°
2026-04-30 11:05 41.25720 117.92310 33953 ft 444 kts 244°
2026-04-30 11:06 41.22468 117.85302 33948 ft 446 kts 244°
2026-04-30 11:06 41.19198 117.78297 33960 ft 446 kts 244°
2026-04-30 11:07 41.15921 117.71299 33966 ft 447 kts 244°
2026-04-30 11:07 41.12628 117.64294 33953 ft 450 kts 244°
2026-04-30 11:08 41.09301 117.57218 33971 ft 452 kts 244°
2026-04-30 11:08 41.05927 117.50175 33967 ft 455 kts 239°
2026-04-30 11:09 41.01357 117.44256 33951 ft 467 kts 220°
2026-04-30 11:09 40.95451 117.40422 33968 ft 478 kts 206°
2026-04-30 11:10 40.89279 117.37280 33977 ft 479 kts 206°
2026-04-30 11:10 40.83066 117.34120 33973 ft 479 kts 206°
2026-04-30 11:11 40.76832 117.30943 33977 ft 480 kts 206°
2026-04-30 11:11 40.70587 117.27774 33978 ft 481 kts 205°
2026-04-30 11:12 40.64300 117.24738 33980 ft 483 kts 204°
2026-04-30 11:12 40.57931 117.21784 33976 ft 485 kts 203°
2026-04-30 11:13 40.51588 117.18833 33975 ft 484 kts 204°
2026-04-30 11:13 40.45242 117.15841 33974 ft 484 kts 204°
2026-04-30 11:14 40.38917 117.12861 33970 ft 483 kts 204°
2026-04-30 11:14 40.32577 117.09883 33965 ft 483 kts 204°
2026-04-30 11:15 40.26281 117.06932 33963 ft 484 kts 204°
2026-04-30 11:15 40.19936 117.03972 33962 ft 485 kts 204°
2026-04-30 11:16 40.13578 117.01019 33960 ft 485 kts 204°
2026-04-30 11:16 40.07216 116.98056 33954 ft 486 kts 204°
2026-04-30 11:17 40.00852 116.95101 33954 ft 486 kts 204°
2026-04-30 11:17 39.94484 116.92142 33957 ft 486 kts 204°
2026-04-30 11:18 39.88119 116.89196 33960 ft 486 kts 204°
2026-04-30 11:18 39.78568 116.84792 33955 ft 483 kts 204°
2026-04-30 11:19 39.72243 116.81825 33957 ft 484 kts 204°
2026-04-30 11:19 39.65923 116.78822 33963 ft 484 kts 204°
2026-04-30 11:20 39.59651 116.75860 33964 ft 485 kts 204°
2026-04-30 11:20 39.53296 116.72884 33967 ft 486 kts 204°
2026-04-30 11:21 39.47037 116.69970 33969 ft 486 kts 204°
2026-04-30 11:21 39.40665 116.67010 33965 ft 487 kts 204°
2026-04-30 11:22 39.34286 116.64044 33979 ft 488 kts 204°
2026-04-30 11:22 39.27896 116.61069 33973 ft 488 kts 204°
2026-04-30 11:23 39.21526 116.58056 33982 ft 487 kts 207°
2026-04-30 11:23 39.15725 116.53781 33989 ft 476 kts 220°
2026-04-30 11:24 39.13015 116.51336 33990 ft 475 kts 220°
2026-04-30 11:24 39.07607 116.46476 33987 ft 474 kts 220°
2026-04-30 11:25 38.99492 116.39214 33993 ft 477 kts 220°
2026-04-30 11:26 38.88612 116.29526 33995 ft 475 kts 220°
2026-04-30 11:26 38.83183 116.24710 33990 ft 474 kts 220°
2026-04-30 11:27 38.77772 116.19923 34003 ft 471 kts 220°
2026-04-30 11:27 38.72380 116.15153 33986 ft 471 kts 221°
2026-04-30 11:28 38.64044 116.08413 33995 ft 480 kts 209°
2026-04-30 11:29 38.57762 116.05367 34005 ft 483 kts 206°
2026-04-30 11:29 38.48312 116.00866 33997 ft 484 kts 206°
2026-04-30 11:30 38.38884 115.96381 34004 ft 485 kts 206°
2026-04-30 11:31 38.32562 115.93381 33996 ft 485 kts 206°
2026-04-30 11:31 38.26058 115.90956 34003 ft 494 kts 193°
2026-04-30 11:32 38.19205 115.89879 34012 ft 496 kts 192°
2026-04-30 11:32 38.12360 115.88811 34014 ft 496 kts 192°
2026-04-30 11:33 38.02080 115.87197 34020 ft 496 kts 192°
2026-04-30 11:33 37.95230 115.86125 34017 ft 496 kts 192°
2026-04-30 11:34 37.88407 115.85075 34007 ft 497 kts 192°
2026-04-30 11:34 37.81554 115.83967 34011 ft 497 kts 193°
2026-04-30 11:35 37.74692 115.82795 34013 ft 496 kts 196°
2026-04-30 11:35 37.68207 115.80290 34007 ft 481 kts 212°
2026-04-30 11:36 37.62110 115.76788 34012 ft 482 kts 212°
2026-04-30 11:36 37.55987 115.73307 34019 ft 483 kts 211°
2026-04-30 11:37 37.49847 115.69827 34008 ft 484 kts 212°
2026-04-30 11:37 37.43716 115.66341 34021 ft 484 kts 212°
2026-04-30 11:38 37.37603 115.62797 33999 ft 483 kts 214°
2026-04-30 11:38 37.31577 115.59168 34003 ft 483 kts 214°
2026-04-30 11:39 37.25485 115.55487 34008 ft 483 kts 214°
2026-04-30 11:39 37.19436 115.51887 34018 ft 484 kts 214°
2026-04-30 11:40 37.13347 115.48297 34006 ft 484 kts 214°
2026-04-30 11:40 37.07240 115.44693 34021 ft 485 kts 214°
2026-04-30 11:41 37.01141 115.41075 34024 ft 485 kts 214°
2026-04-30 11:41 36.95035 115.37468 34022 ft 486 kts 214°
2026-04-30 11:42 36.88911 115.33863 34031 ft 487 kts 214°
2026-04-30 11:42 36.82778 115.30267 34007 ft 487 kts 215°
2026-04-30 11:43 36.76657 115.26680 34015 ft 487 kts 216°
2026-04-30 11:43 36.70554 115.23106 34015 ft 488 kts 216°
2026-04-30 11:44 36.64421 115.19512 34036 ft 488 kts 216°
2026-04-30 11:44 36.58274 115.15919 34033 ft 488 kts 216°
2026-04-30 11:45 36.52115 115.12333 34036 ft 489 kts 216°
2026-04-30 11:45 36.45940 115.08753 34043 ft 490 kts 216°
2026-04-30 11:46 36.39766 115.05185 34053 ft 490 kts 215°
2026-04-30 11:46 36.36557 115.03612 34048 ft 501 kts 207°
2026-04-30 11:46 36.33130 115.02588 34051 ft 513 kts 197°
2026-04-30 11:47 36.25947 115.01772 34057 ft 520 kts 192°
2026-04-30 11:47 36.18725 115.01046 34053 ft 520 kts 193°
2026-04-30 11:48 36.11617 115.00310 34055 ft 519 kts 193°
2026-04-30 11:48 36.04472 114.99572 34065 ft 519 kts 193°
2026-04-30 11:49 35.97267 114.98837 34069 ft 519 kts 193°
2026-04-30 11:49 35.90076 114.98111 34055 ft 518 kts 193°
2026-04-30 11:50 35.82886 114.97387 34069 ft 518 kts 193°
2026-04-30 11:50 35.75716 114.96667 34074 ft 517 kts 193°
2026-04-30 11:51 35.68547 114.95939 34062 ft 517 kts 193°
2026-04-30 11:51 35.61367 114.95206 34061 ft 517 kts 193°
2026-04-30 11:52 35.54191 114.94475 34069 ft 518 kts 193°
2026-04-30 11:52 35.47005 114.93752 34057 ft 518 kts 193°
2026-04-30 11:53 35.39825 114.93036 34057 ft 519 kts 193°
2026-04-30 11:53 35.32626 114.92317 34062 ft 519 kts 193°
2026-04-30 11:54 35.25433 114.91596 34052 ft 519 kts 193°
2026-04-30 11:54 35.18284 114.90888 34062 ft 519 kts 193°
2026-04-30 11:55 35.11098 114.90171 34066 ft 519 kts 193°
2026-04-30 11:55 35.03907 114.89453 34041 ft 519 kts 193°
2026-04-30 11:56 34.97874 114.88848 34075 ft 518 kts 193°
2026-04-30 11:56 34.90687 114.88135 34089 ft 518 kts 193°
2026-04-30 11:57 34.83510 114.87431 34087 ft 518 kts 193°
2026-04-30 11:57 34.75165 114.86602 34094 ft 518 kts 193°
2026-04-30 11:58 34.69194 114.86016 34105 ft 517 kts 193°
2026-04-30 11:58 34.62026 114.85321 34104 ft 517 kts 193°
2026-04-30 11:59 34.54851 114.84613 34092 ft 517 kts 194°
2026-04-30 11:59 34.47687 114.83907 34103 ft 517 kts 193°
2026-04-30 12:00 34.40521 114.83201 34109 ft 516 kts 194°
2026-04-30 12:00 34.33360 114.82491 34091 ft 516 kts 194°
2026-04-30 12:01 34.26245 114.81804 34105 ft 516 kts 193°
2026-04-30 12:01 34.19094 114.81119 34112 ft 516 kts 193°
2026-04-30 12:02 34.11948 114.80424 34079 ft 515 kts 194°
2026-04-30 12:02 34.04799 114.79728 34099 ft 515 kts 194°
2026-04-30 12:03 33.94094 114.78711 34111 ft 514 kts 194°
2026-04-30 12:04 33.86956 114.78037 34113 ft 514 kts 194°
2026-04-30 12:04 33.79830 114.77343 34113 ft 514 kts 194°
2026-04-30 12:05 33.72710 114.76620 34115 ft 513 kts 194°
2026-04-30 12:05 33.65589 114.75912 34086 ft 514 kts 194°
2026-04-30 12:06 33.58467 114.75260 34099 ft 514 kts 194°
2026-04-30 12:06 33.51347 114.74564 34109 ft 512 kts 194°
2026-04-30 12:07 33.44292 114.73828 34113 ft 512 kts 194°
2026-04-30 12:07 33.37190 114.73126 34100 ft 512 kts 194°
2026-04-30 12:08 33.30091 114.72451 34119 ft 512 kts 194°
2026-04-30 12:08 33.22989 114.71780 34129 ft 511 kts 194°
2026-04-30 12:09 33.15892 114.71090 34112 ft 511 kts 195°
2026-04-30 12:09 33.08817 114.70383 34124 ft 510 kts 195°
2026-04-30 12:10 33.01733 114.69676 34123 ft 510 kts 195°
2026-04-30 12:10 32.94706 114.68984 34102 ft 510 kts 195°
2026-04-30 12:11 32.87586 114.68294 34127 ft 510 kts 195°
2026-04-30 12:11 32.80555 114.67624 34138 ft 511 kts 195°
2026-04-30 12:12 32.73464 114.66956 34146 ft 511 kts 195°
2026-04-30 12:12 32.66376 114.66291 34129 ft 511 kts 195°
2026-04-30 12:13 32.59297 114.65624 34141 ft 511 kts 195°
2026-04-30 12:13 32.52205 114.64958 34146 ft 511 kts 195°
2026-04-30 12:14 32.45123 114.64293 34117 ft 511 kts 195°
2026-04-30 12:14 32.38043 114.63641 34139 ft 510 kts 195°
2026-04-30 12:15 32.30984 114.62958 34148 ft 509 kts 195°
2026-04-30 12:15 32.23933 114.62255 34154 ft 508 kts 195°
2026-04-30 12:16 32.16936 114.61570 34147 ft 507 kts 195°
2026-04-30 12:16 32.09906 114.60888 34161 ft 506 kts 195°
2026-04-30 12:17 31.99377 114.59863 34168 ft 506 kts 195°
2026-04-30 12:17 31.92384 114.59192 34163 ft 503 kts 195°
2026-04-30 12:18 31.85409 114.58527 34179 ft 501 kts 195°
2026-04-30 12:18 31.78470 114.57859 34183 ft 500 kts 195°
2026-04-30 12:19 31.71553 114.57187 34162 ft 498 kts 195°
2026-04-30 12:19 31.64653 114.56531 34186 ft 496 kts 195°
2026-04-30 12:20 31.57825 114.55878 34187 ft 494 kts 195°
2026-04-30 12:20 31.50982 114.55214 34190 ft 493 kts 195°
2026-04-30 12:21 31.44147 114.54559 34187 ft 492 kts 195°
2026-04-30 12:21 31.37320 114.53912 34180 ft 492 kts 195°
2026-04-30 12:22 31.30506 114.53264 34177 ft 491 kts 195°
2026-04-30 12:22 31.23875 114.52007 34137 ft 471 kts 208°
2026-04-30 12:23 31.20844 114.50691 34144 ft 459 kts 215°
2026-04-30 12:23 31.17972 114.49100 34155 ft 456 kts 216°
2026-04-30 12:23 31.12289 114.45933 34163 ft 455 kts 216°
2026-04-30 12:24 31.06576 114.42766 34165 ft 455 kts 216°
2026-04-30 12:24 31.00859 114.39610 34149 ft 454 kts 216°
2026-04-30 12:25 30.95162 114.36462 34154 ft 453 kts 215°
2026-04-30 12:25 30.89463 114.33339 34179 ft 453 kts 214°
2026-04-30 12:26 30.84011 114.30486 34186 ft 453 kts 214°
2026-04-30 12:26 30.78254 114.27493 34188 ft 452 kts 214°
2026-04-30 12:27 30.72560 114.24421 34173 ft 450 kts 215°
2026-04-30 12:27 30.66903 114.21314 34179 ft 450 kts 215°
2026-04-30 12:28 30.61232 114.18220 34178 ft 450 kts 214°
2026-04-30 12:28 30.55565 114.15144 34178 ft 450 kts 214°
2026-04-30 12:29 30.49898 114.12082 34151 ft 449 kts 214°
2026-04-30 12:29 30.44227 114.09022 34156 ft 449 kts 214°
2026-04-30 12:30 30.38561 114.05963 34155 ft 450 kts 214°
2026-04-30 12:30 30.32922 114.02924 34151 ft 450 kts 213°
2026-04-30 12:31 30.27240 113.99884 34152 ft 450 kts 213°
2026-04-30 12:31 30.21554 113.96833 34168 ft 450 kts 213°
2026-04-30 12:32 30.15885 113.93794 34174 ft 449 kts 213°
2026-04-30 12:32 30.10206 113.90754 34178 ft 450 kts 213°
2026-04-30 12:33 30.04536 113.87716 34167 ft 449 kts 213°
2026-04-30 12:33 29.98859 113.84686 34173 ft 449 kts 213°
2026-04-30 12:34 29.93184 113.81669 34175 ft 449 kts 213°
2026-04-30 12:34 29.87418 113.78947 34178 ft 459 kts 203°
2026-04-30 12:35 29.84206 113.78252 34178 ft 470 kts 193°
2026-04-30 12:35 29.80972 113.78012 34154 ft 472 kts 191°
2026-04-30 12:35 29.74415 113.77570 34171 ft 472 kts 191°
2026-04-30 12:36 29.67867 113.77122 34178 ft 471 kts 191°
2026-04-30 12:36 29.61319 113.76662 34182 ft 471 kts 191°
2026-04-30 12:37 29.54774 113.76202 34172 ft 471 kts 191°
2026-04-30 12:37 29.48241 113.75745 34190 ft 470 kts 191°
2026-04-30 12:38 29.41709 113.75295 34196 ft 469 kts 191°
2026-04-30 12:38 29.35232 113.74846 34186 ft 469 kts 190°
2026-04-30 12:39 29.28717 113.74399 34182 ft 469 kts 190°
2026-04-30 12:39 29.22207 113.73994 34194 ft 470 kts 188°
2026-04-30 12:40 29.15640 113.74052 34199 ft 473 kts 185°
2026-04-30 12:40 29.09052 113.74395 34202 ft 473 kts 184°
2026-04-30 12:41 29.02484 113.74687 34201 ft 472 kts 185°
2026-04-30 12:41 28.95920 113.74873 34200 ft 471 kts 186°
2026-04-30 12:42 28.89362 113.75030 34209 ft 471 kts 185°
2026-04-30 12:42 28.82816 113.75215 34202 ft 471 kts 185°
2026-04-30 12:43 28.76292 113.75419 34186 ft 471 kts 185°
2026-04-30 12:43 28.69798 113.75205 34212 ft 465 kts 191°
2026-04-30 12:44 28.63343 113.74718 34189 ft 465 kts 190°
2026-04-30 12:44 28.56898 113.74243 34201 ft 464 kts 190°
2026-04-30 12:45 28.50457 113.73773 34177 ft 464 kts 190°
2026-04-30 12:45 28.44007 113.73297 34181 ft 464 kts 190°
2026-04-30 12:46 28.37557 113.72825 34189 ft 465 kts 189°
2026-04-30 12:46 28.31092 113.72359 34188 ft 465 kts 189°
2026-04-30 12:47 28.24670 113.71890 34196 ft 466 kts 189°
2026-04-30 12:47 28.18206 113.71422 34193 ft 465 kts 190°
2026-04-30 12:48 28.11751 113.70950 34199 ft 465 kts 190°
2026-04-30 12:48 28.05303 113.70406 34200 ft 464 kts 191°
2026-04-30 12:49 27.98872 113.69808 34197 ft 463 kts 191°
2026-04-30 12:49 27.92444 113.69211 34189 ft 463 kts 191°
2026-04-30 12:50 27.86037 113.68633 34197 ft 462 kts 191°
2026-04-30 12:50 27.79612 113.68065 34196 ft 462 kts 191°
2026-04-30 12:51 27.73207 113.67501 34199 ft 462 kts 191°
2026-04-30 12:51 27.66836 113.66933 34190 ft 462 kts 191°
2026-04-30 12:52 27.60405 113.66474 34197 ft 465 kts 188°
2026-04-30 12:52 27.53926 113.66360 34197 ft 466 kts 186°
2026-04-30 12:53 27.47437 113.66335 34213 ft 466 kts 186°
2026-04-30 12:53 27.40945 113.66244 34188 ft 466 kts 187°
2026-04-30 12:54 27.34465 113.66093 34211 ft 466 kts 187°
2026-04-30 12:54 27.27988 113.65931 34217 ft 466 kts 187°
2026-04-30 12:55 27.21515 113.65780 34220 ft 466 kts 187°
2026-04-30 12:55 27.16101 113.66258 34224 ft 476 kts 173°
2026-04-30 12:56 27.09658 113.68108 34216 ft 478 kts 171°
2026-04-30 12:56 27.02180 113.70324 34212 ft 478 kts 171°
2026-04-30 12:57 26.95754 113.72229 34214 ft 478 kts 171°
2026-04-30 12:57 26.90363 113.73820 34216 ft 478 kts 171°
2026-04-30 12:58 26.83926 113.75716 34206 ft 478 kts 171°
2026-04-30 12:58 26.77494 113.77614 34223 ft 478 kts 171°
2026-04-30 12:59 26.71097 113.79502 34225 ft 478 kts 170°
2026-04-30 12:59 26.64690 113.81506 34224 ft 478 kts 169°
2026-04-30 13:00 26.58288 113.83554 34225 ft 478 kts 169°
2026-04-30 13:00 26.51897 113.85569 34214 ft 478 kts 169°
2026-04-30 13:01 26.45475 113.87527 34219 ft 478 kts 171°
2026-04-30 13:01 26.39031 113.89361 34234 ft 477 kts 171°
2026-04-30 13:02 26.32595 113.91177 34239 ft 478 kts 171°
2026-04-30 13:02 26.26152 113.93030 34245 ft 478 kts 171°
2026-04-30 13:03 26.19752 113.94885 34249 ft 478 kts 171°
2026-04-30 13:03 26.13309 113.96745 34250 ft 478 kts 171°
2026-04-30 13:04 26.06874 113.98603 34251 ft 478 kts 171°
2026-04-30 13:04 26.00431 114.00456 34248 ft 478 kts 171°
2026-04-30 13:05 25.94002 114.02354 34241 ft 478 kts 170°
2026-04-30 13:06 25.84368 114.05245 34240 ft 478 kts 170°
2026-04-30 13:06 25.77944 114.07154 34242 ft 478 kts 170°
2026-04-30 13:07 25.71509 114.09056 34246 ft 478 kts 170°
2026-04-30 13:07 25.65087 114.10951 34238 ft 478 kts 170°
2026-04-30 13:08 25.58658 114.12853 34247 ft 478 kts 170°
2026-04-30 13:08 25.52284 114.14733 34252 ft 478 kts 170°
2026-04-30 13:09 25.45866 114.16630 34248 ft 477 kts 170°
2026-04-30 13:09 25.39449 114.18522 34250 ft 477 kts 170°
2026-04-30 13:10 25.33037 114.20404 34238 ft 476 kts 170°
2026-04-30 13:10 25.26632 114.22286 34243 ft 476 kts 170°
2026-04-30 13:11 25.20234 114.24168 34243 ft 476 kts 170°
2026-04-30 13:11 25.13832 114.26041 34245 ft 475 kts 172°
2026-04-30 13:12 25.07368 114.26666 34226 ft 461 kts 189°
2026-04-30 13:12 25.01125 114.25482 34224 ft 454 kts 197°
2026-04-30 13:13 24.91868 114.23463 34231 ft 455 kts 196°
2026-04-30 13:14 24.82543 114.21451 34229 ft 455 kts 196°
2026-04-30 13:14 24.73228 114.19425 34224 ft 455 kts 196°
2026-04-30 13:15 24.63907 114.17409 34229 ft 456 kts 196°
2026-04-30 13:16 24.57680 114.16060 34223 ft 455 kts 196°
2026-04-30 13:16 24.51466 114.14703 34217 ft 455 kts 196°
2026-04-30 13:17 24.42187 114.12705 34229 ft 455 kts 196°
2026-04-30 13:18 24.32894 114.10633 34219 ft 453 kts 198°
2026-04-30 13:18 24.23825 114.07853 34215 ft 450 kts 201°
2026-04-30 13:19 24.17829 114.05912 34214 ft 450 kts 200°
2026-04-30 13:19 24.11794 114.04056 34208 ft 450 kts 200°
2026-04-30 13:20 24.05754 114.02246 34206 ft 450 kts 199°
2026-04-30 13:20 23.99703 114.00421 34207 ft 451 kts 199°
2026-04-30 13:21 23.93662 113.98585 34203 ft 451 kts 199°
2026-04-30 13:22 23.84599 113.95836 34208 ft 451 kts 199°
2026-04-30 13:22 23.75535 113.93100 34201 ft 450 kts 199°
2026-04-30 13:23 23.66525 113.90387 34189 ft 450 kts 199°
2026-04-30 13:24 23.54481 113.86751 34183 ft 449 kts 199°
2026-04-30 13:25 23.42447 113.83122 34176 ft 448 kts 199°
2026-04-30 13:26 23.27430 113.78583 34165 ft 449 kts 199°
2026-04-30 13:28 23.12424 113.74079 34148 ft 449 kts 199°
2026-04-30 13:28 23.03385 113.71360 34154 ft 450 kts 199°
2026-04-30 13:29 22.91296 113.67745 34163 ft 451 kts 199°
2026-04-30 13:31 22.76224 113.63176 34176 ft 448 kts 200°
2026-04-30 13:32 22.61288 113.58620 34174 ft 445 kts 200°
2026-04-30 13:33 22.55632 113.56897 34160 ft 444 kts 200°
2026-04-30 13:37 22.52057 113.55749 34158 ft 442 kts 201°
2026-04-30 13:38 22.46162 113.53951 33867 ft 439 kts 200°
2026-04-30 13:38 22.43216 113.53068 33596 ft 439 kts 200°
2026-04-30 13:38 22.37310 113.51287 32038 ft 443 kts 200°
2026-04-30 13:39 22.31334 113.49458 30280 ft 450 kts 199°
2026-04-30 13:39 22.25210 113.47787 28167 ft 460 kts 191°
2026-04-30 13:40 22.21996 113.47608 27145 ft 466 kts 181°
2026-04-30 13:40 22.18753 113.48034 25990 ft 477 kts 171°
2026-04-30 13:40 22.15579 113.49092 25287 ft 474 kts 164°
2026-04-30 13:40 22.12516 113.50244 24523 ft 471 kts 165°
2026-04-30 13:41 22.09420 113.51377 23761 ft 468 kts 165°
2026-04-30 13:41 22.06309 113.52495 23089 ft 461 kts 165°
2026-04-30 13:41 22.03332 113.53565 22943 ft 441 kts 165°
2026-04-30 13:41 22.00522 113.54584 22811 ft 423 kts 165°
2026-04-30 13:42 21.97807 113.55594 22577 ft 408 kts 164°
2026-04-30 13:42 21.95181 113.56691 22035 ft 402 kts 162°
2026-04-30 13:42 21.90091 113.59074 20834 ft 396 kts 160°
2026-04-30 13:43 21.87583 113.60284 20237 ft 394 kts 160°
2026-04-30 13:43 21.85081 113.61479 19639 ft 392 kts 160°
2026-04-30 13:43 21.82583 113.62654 19054 ft 391 kts 161°
2026-04-30 13:43 21.80093 113.63805 18462 ft 390 kts 161°
2026-04-30 13:44 21.77592 113.64950 17828 ft 389 kts 161°
2026-04-30 13:44 21.75162 113.66183 17280 ft 389 kts 151°
2026-04-30 13:44 21.73149 113.68145 16761 ft 392 kts 130°
2026-04-30 13:44 21.71895 113.70746 16205 ft 394 kts 107°
2026-04-30 13:45 21.72120 113.76487 15020 ft 384 kts 65°
2026-04-30 13:45 21.73502 113.78887 14311 ft 374 kts 45°
2026-04-30 13:45 21.75372 113.80791 13533 ft 369 kts 39°
2026-04-30 13:46 21.77260 113.82627 12610 ft 362 kts 39°
2026-04-30 13:46 21.79115 113.84431 11781 ft 356 kts 39°
2026-04-30 13:46 21.80950 113.86219 11101 ft 359 kts 39°
2026-04-30 13:46 21.82915 113.87811 10706 ft 348 kts 24°
2026-04-30 13:47 21.85123 113.88651 10576 ft 327 kts
2026-04-30 13:47 21.87313 113.88769 10340 ft 305 kts 349°
2026-04-30 13:47 21.89292 113.88249 9977 ft 288 kts 333°
2026-04-30 13:47 21.91127 113.87316 9809 ft 290 kts 331°
2026-04-30 13:48 21.92942 113.86402 9465 ft 288 kts 332°
2026-04-30 13:48 21.94739 113.85513 9109 ft 288 kts 332°
2026-04-30 13:48 21.96559 113.84618 8732 ft 286 kts 332°
2026-04-30 13:48 21.98386 113.83718 8381 ft 285 kts 332°
2026-04-30 13:49 22.00153 113.82845 8044 ft 283 kts 333°
2026-04-30 13:49 22.01939 113.81961 7706 ft 281 kts 333°
2026-04-30 13:49 22.03714 113.81079 7360 ft 280 kts 333°
2026-04-30 13:49 22.05483 113.80198 7025 ft 280 kts 333°
2026-04-30 13:50 22.07243 113.79320 6689 ft 279 kts 333°
2026-04-30 13:50 22.10747 113.77572 5991 ft 275 kts 334°
2026-04-30 13:50 22.12492 113.76701 5442 ft 279 kts 334°
2026-04-30 13:51 22.14221 113.75838 4971 ft 269 kts 335°
2026-04-30 13:51 22.15892 113.75006 4273 ft 261 kts 336°
2026-04-30 13:51 22.17484 113.74213 3958 ft 242 kts 336°
2026-04-30 13:51 22.18971 113.73472 3822 ft 232 kts 336°
2026-04-30 13:52 22.20408 113.72757 3727 ft 221 kts 336°
2026-04-30 13:52 22.21764 113.72082 3606 ft 210 kts 339°
2026-04-30 13:52 22.23158 113.71807 3515 ft 199 kts
2026-04-30 13:52 22.24410 113.72248 3325 ft 187 kts 33°
2026-04-30 13:53 22.25392 113.73127 3062 ft 181 kts 41°
2026-04-30 13:53 22.26332 113.74003 2820 ft 176 kts 41°
2026-04-30 13:53 22.27248 113.74852 2591 ft 171 kts 41°
2026-04-30 13:53 22.27813 113.75436 2443 ft 168 kts 51°
2026-04-30 13:54 22.28490 113.76875 2174 ft 160 kts 71°
2026-04-30 13:54 22.28847 113.77976 1996 ft 154 kts 71°
2026-04-30 13:54 22.29195 113.79050 1771 ft 145 kts 71°
2026-04-30 13:54 22.29521 113.80059 1588 ft 141 kts 70°
2026-04-30 13:55 22.29837 113.81038 1402 ft 140 kts 72°
2026-04-30 13:55 22.30157 113.82027 1230 ft 139 kts 71°
2026-04-30 13:55 22.30475 113.83011 1049 ft 140 kts 71°
2026-04-30 13:55 22.30791 113.83988 881 ft 140 kts 71°
2026-04-30 13:56 22.31111 113.84980 697 ft 139 kts 71°
2026-04-30 13:56 22.31427 113.85970 517 ft 140 kts 71°
2026-04-30 13:56 22.31747 113.86953 324 ft 138 kts 71°
2026-04-30 13:56 22.31960 113.87601 196 ft 138 kts 72°
2026-04-30 13:57 22.32269 113.88571 40 ft 134 kts 72°
2026-04-30 13:57 22.32602 113.89609 32 ft 75 kts 70°
2026-04-30 13:57 22.32716 113.89966 30 ft 26 kts 71°
2026-04-30 13:57 22.32743 113.90051 32 ft 19 kts 71°
2026-04-30 13:58 22.32787 113.90188 33 ft 17 kts 71°
2026-04-30 13:58 22.32820 113.90367 33 ft 10 kts 89°
2026-04-30 13:59 22.32804 113.90522 33 ft 10 kts 101°
2026-04-30 13:59 22.32794 113.90575 32 ft 10 kts 100°
2026-04-30 13:59 22.32781 113.90648 31 ft 10 kts 101°
2026-04-30 13:59 22.32778 113.90713 33 ft 10 kts 79°
2026-04-30 14:00 22.32799 113.90784 33 ft 12 kts 71°
2026-04-30 14:00 22.32849 113.90939 33 ft 10 kts 71°
2026-04-30 14:00 22.32875 113.91018 33 ft 12 kts 71°
2026-04-30 14:01 22.32905 113.91112 33 ft 14 kts 71°
2026-04-30 14:01 22.32938 113.91212 33 ft 14 kts 71°
2026-04-30 14:01 22.32971 113.91316 33 ft 15 kts 70°
2026-04-30 14:01 22.33005 113.91422 33 ft 15 kts 71°
2026-04-30 14:02 22.33038 113.91527 32 ft 12 kts 71°
2026-04-30 14:02 22.33067 113.91618 32 ft 14 kts 71°
2026-04-30 14:02 22.33100 113.91725 30 ft 16 kts 71°
2026-04-30 14:02 22.33134 113.91825 31 ft 13 kts 71°
2026-04-30 14:03 22.33159 113.91903 32 ft 10 kts 71°
2026-04-30 14:03 22.33186 113.91987 32 ft 11 kts 71°
2026-04-30 14:03 22.33210 113.92062 32 ft 10 kts 72°
2026-04-30 14:03 22.33183 113.92125 32 ft 10 kts 150°
2026-04-30 14:04 22.33124 113.92148 32 ft 9 kts 161°
2026-04-30 14:04 22.33061 113.92172 32 ft 10 kts 161°
2026-04-30 14:04 22.32992 113.92197 32 ft 11 kts 161°
2026-04-30 14:04 22.32919 113.92225 32 ft 12 kts 161°
2026-04-30 14:05 22.32846 113.92252 32 ft 11 kts 161°
2026-04-30 14:05 22.32769 113.92280 32 ft 12 kts 161°
2026-04-30 14:05 22.32691 113.92309 32 ft 9 kts 161°
2026-04-30 14:05 22.32636 113.92330 32 ft 9 kts 161°
2026-04-30 14:06 22.32570 113.92354 32 ft 11 kts 160°
2026-04-30 14:06 22.32414 113.92413 32 ft 13 kts 161°
2026-04-30 14:07 22.32272 113.92465 32 ft 0 kts 160°
2026-04-30 14:08 22.32242 113.92494 31 ft 7 kts 113°
2026-04-30 14:08 22.32250 113.92551 32 ft 10 kts 68°
2026-04-30 14:08 22.32222 113.92678 32 ft 11 kts 159°
2026-04-30 14:09 22.32167 113.92697 32 ft 7 kts 162°
2026-04-30 14:09 22.32122 113.92713 32 ft 6 kts 162°
2026-04-30 14:09 22.32045 113.92741 34 ft 12 kts 161°
2026-04-30 14:10 22.31972 113.92768 34 ft 8 kts 160°
2026-04-30 14:10 22.31910 113.92792 32 ft 10 kts 159°
2026-04-30 14:10 22.31862 113.92813 31 ft 6 kts 157°
2026-04-30 14:10 22.31800 113.92820 32 ft 13 kts 205°
2026-04-30 14:11 22.31764 113.92747 32 ft 13 kts 250°
2026-04-30 14:11 22.31734 113.92654 32 ft 12 kts 251°
2026-04-30 14:11 22.31706 113.92568 32 ft 12 kts 251°
2026-04-30 14:11 22.31680 113.92489 32 ft 11 kts 251°
2026-04-30 14:12 22.31657 113.92415 32 ft 10 kts 251°
2026-04-30 14:12 22.31638 113.92356 32 ft 10 kts 251°
2026-04-30 14:12 22.31626 113.92319 32 ft 4 kts 251°
2026-04-30 14:12 22.31621 113.92303 32 ft 5 kts 251°
2026-04-30 14:13 22.31609 113.92265 32 ft 5 kts 251°
2026-04-30 14:13 22.31599 113.92234 31 ft 5 kts 250°
2026-04-30 14:13 22.31589 113.92205 32 ft 6 kts 250°
2026-04-30 14:13 22.31584 113.92188 31 ft 1 kts 251°
2026-04-30 14:14 22.31581 113.92181 31 ft 2 kts 251°
2026-04-30 14:14 22.31581 113.92179 32 ft 2 kts 251°
2026-04-30 14:14 22.31575 113.92161 32 ft 4 kts 251°
2026-04-30 14:14 22.31565 113.92137 32 ft 3 kts 233°
2026-04-30 14:15 22.31554 113.92135 32 ft 1 kts 179°
2026-04-30 14:15 22.31549 113.92137 32 ft 0 kts 163°
2026-04-30 14:15 22.31546 113.92140 32 ft 2 kts 150°
2026-04-30 14:16 22.31545 113.92140 32 ft 0 kts 149°
2026-04-30 14:17 22.31534 113.92150 32 ft 4 kts 136°
2026-04-30 14:17 22.31519 113.92170 32 ft 3 kts 128°
2026-04-30 14:17 22.31511 113.92182 32 ft 1 kts 128°
2026-04-30 14:18 22.31510 113.92183 31 ft 1 kts 127°
2026-04-30 14:18 22.31504 113.92191 32 ft 1 kts 128°
2026-04-30 14:19 22.31499 113.92198 31 ft 0 kts 128°